Kimball, NE

9:55 PM MST on January 17, 2018 (GMT -0700)
Kimball Municipal-Arraj

Weather History for KIBM - January, 2014

Change the Weather History Date:

Monday, January 20, 2014

  Actual Average (KSNY) Record (KSNY)
Temperature  
Mean Temperature 32 °F -  
Max Temperature 42 °F 37 °F 68 °F (1971)
Min Temperature 20 °F 14 °F -16 °F (1984)
Degree Days  
Heating Degree Days 34    
Moisture  
Dew Point 13 °F    
Average Humidity 41    
Maximum Humidity 80    
Minimum Humidity 25    
Precipitation  
Precipitation 0.00 in - - ()
Sea Level Pressure  
Sea Level Pressure 30.19 in    
Wind  
Wind Speed 17 mph (NW)    
Max Wind Speed 34 mph    
Max Gust Speed 43 mph    
Visibility 10 miles    
Events      
Averages and records for this station are not official NWS values.
T = Trace of Precipitation, MM = Missing Value Source: NWS Daily Summary

Daily Weather History Graph

Daily Weather History Graph

Search for Another Location

Airport or City:

Trip Planner

Search our weather history database for the weather conditions in past years. The results will help you decide how hot, cold, wet, or windy it might be!

Date:

Astronomy

Jan. 20, 2014 Rise Set
Actual Time 8:15 AM CST 5:56 PM CST
Civil Twilight 7:45 AM CST 6:26 PM CST
Nautical Twilight 7:11 AM CST 7:00 PM CST
Astronomical Twilight 6:38 AM CST 7:33 PM CST
Moon 10:36 PM CST (1/20) 10:13 AM CST (1/20)
Length of Visible Light 10h 41m
Length of Day
9h 41m
Waning Gibbous, 82% of the Moon is Illuminated
Jan 20
Waning Gibbous
Jan 23
Last Quarter
Jan 30
New
Feb 6
First Quarter
Feb 14
Full

Hourly Weather History & Observations

Time (CST) Temp. Windchill Dew Point Humidity Pressure Visibility Wind Dir Wind Speed Gust Speed Precip Events Conditions
12:15 AM 35.2 °F 27.1 °F 9.5 °F 34% 29.96 in 10.0 mi WNW 11.5 mph - N/A   Clear
12:35 AM 37.2 °F 28.7 °F 9.5 °F 32% 29.95 in 10.0 mi WNW 13.8 mph - N/A   Clear
12:55 AM 36.3 °F 26.4 °F 9.7 °F 33% 29.95 in 10.0 mi WNW 17.3 mph - N/A   Clear
1:15 AM 37.4 °F 28.2 °F 9.5 °F 32% 29.95 in 10.0 mi WNW 16.1 mph - N/A   Clear
1:35 AM 39.2 °F 30.2 °F 8.6 °F 28% 29.96 in 10.0 mi WNW 17.3 mph - N/A   Clear
1:55 AM 41.4 °F 32.7 °F 7.7 °F 25% 29.96 in 10.0 mi WNW 18.4 mph - N/A   Clear
2:15 AM 40.8 °F 32.0 °F 7.9 °F 26% 29.97 in 10.0 mi WNW 18.4 mph - N/A   Clear
2:35 AM 40.5 °F 32.1 °F 7.9 °F 26% 29.98 in 10.0 mi NW 16.1 mph - N/A   Clear
2:55 AM 39.4 °F 31.1 °F 7.7 °F 27% 29.99 in 10.0 mi WNW 15.0 mph - N/A   Clear
3:15 AM 38.5 °F 31.6 °F 7.7 °F 28% 30.00 in 10.0 mi WNW 10.4 mph - N/A   Clear
3:35 AM 37.4 °F 30.3 °F 8.4 °F 30% 30.00 in 10.0 mi NW 10.4 mph - N/A   Clear
3:55 AM 37.4 °F 30.3 °F 8.6 °F 30% 30.02 in 10.0 mi NW 10.4 mph - N/A   Clear
4:15 AM 37.9 °F 30.0 °F 8.6 °F 30% 30.02 in 10.0 mi NW 12.7 mph 19.6 mph N/A   Clear
4:35 AM 38.8 °F 30.0 °F 9.0 °F 29% 30.03 in 10.0 mi NW 16.1 mph 23.0 mph N/A   Clear
4:55 AM 37.9 °F 27.9 °F 9.5 °F 31% 30.04 in 10.0 mi NW 19.6 mph 24.2 mph N/A   Clear
5:15 AM 37.4 °F 26.9 °F 11.1 °F 34% 30.06 in 10.0 mi NW 20.7 mph - N/A   Clear
5:35 AM 36.5 °F 27.4 °F 13.1 °F 38% 30.08 in 10.0 mi NNW 15.0 mph - N/A   Clear
5:55 AM 35.8 °F 26.5 °F 14.2 °F 41% 30.10 in 10.0 mi NNW 15.0 mph - N/A   Clear
6:15 AM 35.8 °F 24.8 °F 15.1 °F 43% 30.11 in 10.0 mi NNW 20.7 mph 27.6 mph N/A   Clear
6:35 AM 35.8 °F 25.1 °F 15.8 °F 44% 30.12 in 10.0 mi NNW 19.6 mph 31.1 mph N/A   Clear
6:55 AM 36.1 °F 24.7 °F 16.0 °F 44% 30.14 in 10.0 mi NNW 23.0 mph 29.9 mph N/A   Clear
7:15 AM 35.6 °F 22.5 °F 15.6 °F 44% 30.15 in 10.0 mi NNW 29.9 mph 35.7 mph N/A   Scattered Clouds
7:35 AM 34.7 °F 22.5 °F 14.9 °F 44% 30.17 in 10.0 mi NNW 24.2 mph 31.1 mph N/A   Clear
7:55 AM 33.4 °F 22.3 °F 14.9 °F 47% 30.19 in 10.0 mi NNW 18.4 mph 27.6 mph N/A   Clear
8:15 AM 32.4 °F 21.7 °F 14.0 °F 47% 30.20 in 10.0 mi NNW 16.1 mph - N/A   Clear
8:35 AM 33.1 °F 22.2 °F 14.9 °F 47% 30.21 in 10.0 mi NNW 17.3 mph 23.0 mph N/A   Scattered Clouds
8:55 AM 34.2 °F 24.0 °F 15.1 °F 46% 30.21 in 10.0 mi NNW 16.1 mph 21.9 mph N/A   Mostly Cloudy
9:15 AM 34.3 °F 25.9 °F 16.3 °F 48% 30.21 in 10.0 mi NW 11.5 mph - N/A   Scattered Clouds
9:35 AM 34.7 °F 24.3 °F 18.3 °F 51% 30.21 in 10.0 mi NW 17.3 mph 20.7 mph N/A   Mostly Cloudy
9:55 AM 35.6 °F 25.5 °F 17.2 °F 47% 30.22 in 10.0 mi NW 17.3 mph 23.0 mph N/A   Scattered Clouds
10:15 AM 36.7 °F 25.4 °F 15.6 °F 42% 30.23 in 10.0 mi NW 23.0 mph 31.1 mph N/A   Clear
10:35 AM 37.4 °F 26.4 °F 15.6 °F 41% 30.24 in 10.0 mi NW 23.0 mph 31.1 mph N/A   Clear
10:55 AM 38.3 °F 27.6 °F 14.7 °F 38% 30.25 in 10.0 mi NNW 23.0 mph 31.1 mph N/A   Clear
11:15 AM 39.0 °F 27.0 °F 11.5 °F 32% 30.26 in 10.0 mi NNW 31.1 mph 39.1 mph N/A   Clear
11:35 AM 39.4 °F 27.1 °F 12.7 °F 34% 30.27 in 10.0 mi NNW 33.4 mph 39.1 mph N/A   Clear
11:55 AM 40.1 °F 28.4 °F 12.7 °F 33% 30.27 in 10.0 mi NNW 31.1 mph 38.0 mph N/A   Clear
12:15 PM 40.3 °F 29.9 °F 12.2 °F 32% 30.26 in 10.0 mi NNW 24.2 mph 35.7 mph N/A   Clear
12:35 PM 40.8 °F 28.9 °F 9.9 °F 28% 30.25 in 10.0 mi NNW 34.5 mph 41.4 mph N/A   Clear
12:55 PM 40.6 °F 29.6 °F 9.7 °F 28% 30.24 in 7.0 mi NNW 28.8 mph 41.4 mph N/A   Clear
1:15 PM 40.8 °F 30.2 °F 10.9 °F 29% 30.24 in 10.0 mi NNW 26.5 mph 41.4 mph N/A   Clear
1:35 PM 41.9 °F 30.9 °F 11.7 °F 29% 30.23 in 10.0 mi NNW 31.1 mph 42.6 mph N/A   Clear
1:55 PM 41.5 °F 29.9 °F 12.0 °F 30% 30.23 in 10.0 mi NNW 34.5 mph 40.3 mph N/A   Clear
2:15 PM 42.3 °F 31.6 °F 12.9 °F 30% 30.23 in 10.0 mi NNW 29.9 mph 40.3 mph N/A   Clear
2:35 PM 41.9 °F 30.9 °F 12.6 °F 30% 30.23 in 10.0 mi NNW 31.1 mph 41.4 mph N/A   Clear
2:55 PM 41.2 °F 30.5 °F 12.7 °F 31% 30.24 in 10.0 mi NNW 27.6 mph 38.0 mph N/A   Clear
3:15 PM 41.2 °F 30.3 °F 12.9 °F 32% 30.25 in 10.0 mi NNW 28.8 mph 39.1 mph N/A   Clear
3:35 PM 41.2 °F 30.7 °F 13.1 °F 32% 30.26 in 10.0 mi NNW 26.5 mph 34.5 mph N/A   Clear
3:55 PM 40.8 °F 30.0 °F 12.6 °F 32% 30.27 in 10.0 mi NNW 27.6 mph 35.7 mph N/A   Clear
4:15 PM 40.5 °F 30.4 °F 12.0 °F 31% 30.28 in 10.0 mi NNW 23.0 mph 33.4 mph N/A   Clear
4:35 PM 40.1 °F 29.7 °F 11.8 °F 32% 30.28 in 10.0 mi NNW 24.2 mph 31.1 mph N/A   Clear
4:55 PM 39.2 °F 29.8 °F 10.4 °F 31% 30.29 in 10.0 mi NNW 18.4 mph 31.1 mph N/A   Clear
5:15 PM 38.3 °F 27.6 °F 10.4 °F 32% 30.29 in 10.0 mi North 23.0 mph 28.8 mph N/A   Clear
5:35 PM 37.2 °F 26.7 °F 10.9 °F 34% 30.30 in 10.0 mi NNW 20.7 mph 28.8 mph N/A   Clear
5:55 PM 35.4 °F 26.8 °F 11.8 °F 38% 30.30 in 10.0 mi NNW 12.7 mph 21.9 mph N/A   Clear
6:15 PM 34.0 °F 26.0 °F 12.6 °F 41% 30.30 in 10.0 mi NW 10.4 mph - N/A   Clear
6:35 PM 30.4 °F 21.0 °F 12.4 °F 47% 30.30 in 10.0 mi West 11.5 mph - N/A   Clear
6:55 PM 32.0 °F 23.0 °F 14.0 °F 48% 30.30 in 10.0 mi NW 11.5 mph - N/A   Clear
7:15 PM 32.9 °F 23.7 °F 14.0 °F 46% 30.30 in 10.0 mi NW 12.7 mph - N/A   Clear
7:35 PM 32.7 °F 23.0 °F 14.0 °F 46% 30.30 in 10.0 mi NNW 13.8 mph - N/A   Clear
7:55 PM 32.0 °F 23.0 °F 14.0 °F 48% 30.30 in 10.0 mi NW 11.5 mph - N/A   Clear
8:15 PM 31.3 °F 22.1 °F 14.7 °F 50% 30.31 in 10.0 mi NNW 11.5 mph - N/A   Clear
8:35 PM 31.3 °F 22.7 °F 14.4 °F 50% 30.32 in 10.0 mi NW 10.4 mph - N/A   Clear
8:55 PM 30.2 °F 22.6 °F 14.7 °F 53% 30.32 in 10.0 mi NW 8.1 mph - N/A   Clear
9:15 PM 29.1 °F 20.6 °F 14.9 °F 55% 30.32 in 10.0 mi NW 9.2 mph - N/A   Clear
9:35 PM 27.7 °F 19.6 °F 14.9 °F 59% 30.32 in 10.0 mi NW 8.1 mph - N/A   Clear
9:55 PM 27.7 °F 19.6 °F 15.4 °F 60% 30.32 in 10.0 mi NW 8.1 mph - N/A   Clear
10:15 PM 24.8 °F 15.3 °F 15.4 °F 68% 30.32 in 10.0 mi WNW 9.2 mph - N/A   Clear
10:35 PM 25.2 °F 15.7 °F 16.2 °F 69% 30.31 in 10.0 mi NW 9.2 mph - N/A   Clear
10:55 PM 22.8 °F 14.5 °F 15.4 °F 73% 30.31 in 10.0 mi WNW 6.9 mph - N/A   Clear
11:15 PM 21.7 °F 13.2 °F 15.4 °F 77% 30.31 in 10.0 mi WNW 6.9 mph - N/A   Clear
11:35 PM 21.2 °F 12.6 °F 15.3 °F 78% 30.31 in 10.0 mi WNW 6.9 mph - N/A   Clear
11:55 PM 20.1 °F 9.5 °F 14.7 °F 80% 30.30 in 10.0 mi WNW 9.2 mph - N/A   Clear